Powrót do katalogu

KUIPER-00631

AktywnyŁącznośćLEO
NORAD 69784·PAYLOAD·🇺🇸 United States

Wystrzelony Jul 2, 2026 z Cape Canaveral Space Force Station

Loading…

Następne Przeloty (najbliższe 24 godziny)

TLE

ŚwieżeSource: CelesTrak SupGP

Epoka: Sep 14, 2026, 17:35 UTC

1 69784C 26151X   26257.73270833  .00000083  00000+0  10825-4 0  2571
2 69784  51.8994 262.1969 0000794  77.3500 317.2408 14.79914499    12

Śledź KUIPER-00631 w czasie rzeczywistym z AllMySat

Download on the App Store